Hlavní strana
METAR-TAF:

METAR-TAF

Letiště :

Fairfield Municipal Airport

Fairfield, Illinois, Spojené státy americké

zeměpisná šířka: 38-22-43N, zeměpisná délka: 088-24-46W, výška: 133 m

Aktuální stav počasí

Zpráva byla vytvořena před 29 minutami, v 09:55 UTC
Severozápadní vítr 3 kt
Teplota -3°C
Vlhkost vzduchu 68%
Tlak 1020 hPa
Viditelnost: 16.1 km
Jasno

METAR: KFWC 100955Z AUTO 31003KT 10SM CLR M03/M08 A3011 RMK AO1 T10261076

Čas: 04:24 (10:24 UTC)


TAF: chybějící

Stav a předpovědi počasí z více než 4 000 letišť (zprávy METAR a TAF).

Červené a žluté tečky na mapě představují dostupné meteorologické stanice.

Když kurzor umístíte na tečku, zobrazí se název stanice.

Pak kliknutím zobrazíte stav a předpověď počasí.

Chcete-li změnit mapu, kliknutím na zelené tlačítko se znaménkem +mapu přiblížíte, kliknutím na zelené tlačítko se znaménkem – mapu oddálíte a kliknutím na zelené šipky přejdete na sousední mapy.


METAR-TAF: